Regional Weather Roundup
Issued by NWS

Home | Current Version | Previous Version | Text Only | Print | Product List | Glossary On
Versions: 1 2 3 4 5 6 7 8 9 10 11 12 13 14 15 16 17 18 19 20 21 22 23 24 25 26 27 28 29 30 31 32 33 34 35 36 37 38 39 40 41 42 43 44 45 46 47 48 49 50
000
ASPQ40 PGUM 251612
RWRPQ
WEATHER ROUNDUP FOR THE MARIANAS AND MICRONESIA
NATIONAL WEATHER SERVICE TIYAN GU
200 AM CHST SUN MAR 26 2017

GUZ001>004-251700-
MARIANA ISLANDS-

CITY           SKY/WX    TMP DP  RH WIND       PRES   REMARKS
GUAM AIRPORT   CLEAR     77  73  88 NE6       29.96F
ANDERSEN AFB   PTCLDY    77  72  83 E8        29.97F
ROTA AIRPORT   NOT AVBL
TINIAN AP      NOT AVBL
SAIPAN AP      MOCLDY    77  72  83 E6        29.96F

$$

PMZ161-251700-
REPUBLIC OF PALAU-

CITY           SKY/WX    TMP DP  RH WIND       PRES   REMARKS
KOROR AP       MOCLDY    81  75  83 NE6       29.86F
KOROR WSO      CLOUDY    82  75  78 NE13      29.87F

$$

PMZ171>174-251700-
FEDERATED STATES OF MICRONESIA-

CITY           SKY/WX    TMP DP  RH WIND       PRES   REMARKS
YAP AIRPORT    LGT RAIN  77  75  94 VRB6      29.90F
CHUUK AP       CLOUDY    82  77  83 NE9       29.83F HX  91
POHNPEI AP     CLOUDY    82  77  83 E12       29.84F HX  91
POHNPEI WSO    MOCLDY    82  73  74 E12       29.86F
KOSRAE AP      CLOUDY    84  75  74 E9        29.81F HX  92

$$

PMZ181-251700-
REPUBLIC OF THE MARSHALL ISLANDS-

CITY           SKY/WX    TMP DP  RH WIND       PRES   REMARKS
KWAJALEIN AP   PTCLDY    81  73  78 E15       29.85S
MAJURO AP      NOT AVBL
MAJURO WSO     CLOUDY    82  73  74 NE15      29.82F

$$




USA.gov is the U.S. government's official web portal to all federal, state and local government web resources and services.